Regional Weather Roundup
Issued by NWS

Home | Current Version | Previous Version | Graphics & Text | Print | Product List | Glossary On
Versions: 1 2 3 4 5 6 7 8 9 10 11 12 13 14 15 16 17 18 19 20 21 22 23 24 25 26 27 28 29 30 31 32 33 34 35 36 37 38 39 40 41 42 43 44 45 46 47 48 49 50
000
ASUS43 KTOP 170108
RWRKS

WEATHER ROUNDUP FOR KANSAS
NATIONAL WEATHER SERVICE GOODLAND KS
700 PM CST FRI FEB 16 2018

NOTE:  "FAIR" INDICATES FEW OR NO CLOUDS BELOW 12,000 FEET WITH NO
SIGNIFICANT WEATHER AND/OR OBSTRUCTIONS TO VISIBILITY.

KSZ001>006-013>018-027>032-041>047-170200-
NORTHWEST KANSAS

CITY           SKY/WX    TMP DP  RH WIND       PRES   REMARKS
GOODLAND       CLOUDY    32  17  54 S16       29.94F WCI  21
HAYS           MOCLDY    33  13  43 S10       30.14F WCI  25
HILL CITY      CLOUDY    34  16  47 S10       30.09F WCI  26
RUSSELL        CLOUDY    34  13  41 S10       30.14F WCI  26
$$

KSZ061>065-074>080-084>089-170200-
SOUTHWEST KANSAS

CITY           SKY/WX    TMP DP  RH WIND       PRES   REMARKS
DODGE CITY     CLOUDY    33  14  45 S14       30.13F WCI  23
ELKHART        MOCLDY    39  23  51 S17G23    30.05F WCI  30
GARDEN CITY    MOCLDY    33  15  47 S10       30.08F WCI  25
GREAT BEND     CLOUDY    34  12  40 S10       30.17F WCI  26
LIBERAL        CLOUDY    36  17  46 SE13      30.11F WCI  27
PRATT          CLOUDY    35  12  39 S7        30.19F
$$

KSZ066>073-081>083-090>101-170200-
SOUTHEAST KANSAS

CITY           SKY/WX    TMP DP  RH WIND       PRES   REMARKS
CHANUTE        CLOUDY    37  17  44 E5        30.27F
COFFEYVILLE    CLOUDY    38  22  52 E6        30.26F
HUTCHINSON     CLOUDY    33  13  43 SE6       30.20F
MEDICINE LODGE   N/A     36  14  40 SE5       30.20F
NEWTON         MOCLDY    33  10  38 SE5       30.22F
PARSONS        CLOUDY    35  22  58 CALM      30.26F
WICHITA INTL   CLOUDY    37  12  35 SE3       30.22F
WICHITA JABRA  MOCLDY    35  12  38 CALM      30.22F
WICHITA MCCONL CLOUDY    37  10  32 CALM      30.21F
WINFIELD       CLOUDY    38  14  37 E6        30.24F
$$

KSZ007>012-019>026-033>040-048>060-102>105-170200-
NORTHEAST KANSAS

CITY           SKY/WX    TMP DP  RH WIND       PRES   REMARKS
CONCORDIA      CLOUDY    29   9  43 S8        30.18F
EMPORIA        CLOUDY    33  11  39 SE6       30.24F
LAWRENCE       PTCLDY    28  13  53 E3        30.28F
MANHATTAN      CLOUDY    32  10  40 S3        30.23F
MARYSVILLE     CLOUDY    30  10  43 S5        30.21F
OLATHE IND     CLOUDY    31  11  43 CALM      30.28F
OLATHE EXE     CLOUDY    34   7  32 SE3       30.27F
SALINA         CLOUDY    35  10  35 SE8       30.22F
TOPEKA BILLARD CLOUDY    32  10  40 SE6       30.27F
TOPEKA FORBES  MOCLDY    31   9  39 SE3       30.25F
$$




USA.gov is the U.S. government's official web portal to all federal, state and local government web resources and services.